This is the latest recevied weather packets stored in our database for station/object W3JBS-2. If no packets are shown the sender has not sent any weather packets the latest 10 day(s).
| Time | Temp. | Humidity | Pressure | Rain* | Wind** | Luminosity | Snow |
|---|---|---|---|---|---|---|---|
| 1778105223 | 20° C | 76% | 1006.7 hPa | 0 mm | - | 1695 W/m² | - |
| 1778104322 | 19.44° C | 76% | 1006.9 hPa | 0 mm | - | 1693 W/m² | - |
| 1778103423 | 19.44° C | 76% | 1006.6 hPa | 0 mm | - | 1695 W/m² | - |
| 1778102522 | 19.44° C | 77% | 1006.7 hPa | 0 mm | - | 1695 W/m² | - |
| 1778101623 | 19.44° C | 77% | 1006.5 hPa | 0 mm | - | 1693 W/m² | - |
| 1778100722 | 19.44° C | 77% | 1006.5 hPa | 0 mm | - | 1695 W/m² | - |
| 1778099822 | 19.44° C | 77% | 1006.5 hPa | 0 mm | - | 1696 W/m² | - |
| 1778098922 | 18.33° C | 80% | 1006.4 hPa | 0 mm | - | 1705 W/m² | - |
| 1778098022 | 18.33° C | 79% | 1006.5 hPa | 0.25 mm | - | 1709 W/m² | - |
| 1778097122 | 17.78° C | 80% | 1006.6 hPa | 0.25 mm | - | 1714 W/m² | - |
| 1778096222 | 17.78° C | 81% | 1006.8 hPa | 0.25 mm | - | 1719 W/m² | - |
| 1778095322 | 17.78° C | 81% | 1006.9 hPa | 0.25 mm | - | 1724 W/m² | - |
| 1778094422 | 17.22° C | 82% | 1007 hPa | 0 mm | - | 1731 W/m² | - |
| 1778093522 | 17.22° C | 82% | 1007.2 hPa | 0 mm | - | 1735 W/m² | - |
| 1778092622 | 17.22° C | 82% | 1007.1 hPa | 0 mm | - | 1740 W/m² | - |
| 1778091722 | 16.67° C | 83% | 1007.4 hPa | 0 mm | - | 1746 W/m² | - |
| 1778090822 | 16.67° C | 84% | 1007.5 hPa | 0 mm | - | 1749 W/m² | - |
| 1778089922 | 16.67° C | 84% | 1007.6 hPa | 0 mm | - | 1753 W/m² | - |
| 1778089022 | 16.67° C | 84% | 1007.7 hPa | 0 mm | - | 1754 W/m² | - |
| 1778088122 | 16.67° C | 84% | 1007.6 hPa | 0 mm | - | 1756 W/m² | - |
| 1778087222 | 16.67° C | 84% | 1007.8 hPa | 0.25 mm | - | 1758 W/m² | - |
| 1778086322 | 16.67° C | 85% | 1007.8 hPa | 0.76 mm | - | 1760 W/m² | - |
| 1778085422 | 16.67° C | 85% | 1007.8 hPa | 1.27 mm | - | 1763 W/m² | - |
| 1778084522 | 16.67° C | 85% | 1008 hPa | 1.52 mm | - | 1765 W/m² | - |
| 1778083622 | 16.11° C | 84% | 1008.3 hPa | 1.78 mm | - | 1768 W/m² | - |
* Rain latest hour (hover to see other rain measurements)
** Current wind speed in m/s (hover to see current wind gust speed)